{"data":{"norad_id":41174,"intl_designator":"2015-079A","name":"GSAT0209 (GALILEO 12)","alt_names":[],"object_type":"PAYLOAD","status":"ACTIVE","operator":null,"country":"ESA","launch_date":"2015-12-17","launch_site_code":"FRGUI","launch_vehicle":null,"mission":null,"orbit_class":"UNKNOWN","rcs_meters":6.7254,"size_class":null,"mass_kg":null,"dimensions":null,"purposes":["earth_obs","nav"],"wikipedia_slug":null,"has_3d_model":false,"image_url":null,"decayed_at":null,"tle_current":{"epoch":"2026-09-18T21:25:30.949248Z","epoch_age_seconds":143129,"freshness":"FRESH","line1":"1 41174U 15079A   26261.89271932  .00000020  00000+0  00000+0 0  9997","line2":"2 41174  55.8868  98.6896 0003620  19.3368 340.7495  1.70474078 66378","mean_motion":1.70474078,"eccentricity":0.000362,"inclination_deg":55.8868,"raan_deg":98.6896,"arg_perigee_deg":19.3368,"mean_anomaly_deg":340.7495,"bstar":0,"rev_number":6637,"period_min":844.70320467139,"perigee_km":23211.458715936,"apogee_km":23232.88934112,"semimajor_km":29600.311028528,"source":"CELESTRAK","updated_at":"2026-09-20T09:00:46.493525Z"}}}